This is the latest recevied weather packets stored in our database for station/object W8KVG. If no packets are shown the sender has not sent any weather packets the latest 10 day(s).
| Time | Temp. | Humidity | Pressure | Rain* | Wind** | Luminosity | Snow |
|---|---|---|---|---|---|---|---|
| 1778079058 | 9.44° C | 99% | 1008.1 hPa | 0 mm | - | 77 W/m² | - |
| 1778078754 | 9.44° C | 99% | 1008 hPa | 0 mm | - | 99 W/m² | - |
| 1778078451 | 9.44° C | 99% | 1008 hPa | 0 mm | - | 91 W/m² | - |
| 1778078149 | 9.44° C | 99% | 1007.8 hPa | 0 mm | - | 181 W/m² | - |
| 1778077847 | 9.44° C | 99% | 1007.8 hPa | 0 mm | - | 155 W/m² | - |
| 1778077545 | 8.89° C | 99% | 1007.7 hPa | 0 mm | - | 87 W/m² | - |
| 1778077243 | 8.89° C | 99% | 1007.8 hPa | 0 mm | - | 88 W/m² | - |
| 1778076940 | 8.89° C | 99% | 1007.7 hPa | 0 mm | - | 72 W/m² | - |
| 1778076638 | 8.89° C | 99% | 1007.5 hPa | 0 mm | - | 79 W/m² | - |
| 1778076335 | 8.89° C | 99% | 1007.5 hPa | 0 mm | - | 72 W/m² | - |
| 1778076032 | 8.89° C | 99% | 1007.4 hPa | 0.51 mm | - | 79 W/m² | - |
| 1778075729 | 8.89° C | 99% | 1007.4 hPa | 0.51 mm | - | 84 W/m² | - |
| 1778075425 | 8.89° C | 99% | 1007.5 hPa | 0 mm | - | 85 W/m² | - |
| 1778075122 | 8.89° C | 99% | 1007.3 hPa | 0 mm | - | 68 W/m² | - |
| 1778074818 | 8.89° C | 99% | 1007.3 hPa | 0.51 mm | - | 106 W/m² | - |
| 1778074515 | 8.89° C | 99% | 1007.2 hPa | 1.27 mm | - | 93 W/m² | - |
| 1778074212 | 8.33° C | 99% | 1007.3 hPa | 1.27 mm | - | 70 W/m² | - |
| 1778073909 | 8.33° C | 99% | 1007.4 hPa | 0.51 mm | - | 40 W/m² | - |
| 1778073607 | 8.33° C | 99% | 1007.2 hPa | 0.51 mm | - | 36 W/m² | - |
| 1778073303 | 8.33° C | 99% | 1007.4 hPa | 0.51 mm | - | 30 W/m² | - |
| 1778072995 | 8.33° C | 99% | 1007.5 hPa | 0.51 mm | - | 23 W/m² | - |
| 1778072691 | 8.33° C | 99% | 1007.2 hPa | 0.51 mm | - | 17 W/m² | - |
| 1778072389 | 8.33° C | 99% | 1007.2 hPa | 0.51 mm | - | 17 W/m² | - |
| 1778072087 | 8.33° C | 99% | 1007 hPa | 0 mm | - | 13 W/m² | - |
| 1778071784 | 8.33° C | 99% | 1006.6 hPa | 0 mm | - | 14 W/m² | - |
* Rain latest hour (hover to see other rain measurements)
** Current wind speed in m/s (hover to see current wind gust speed)